User: anonymous   Login
Location: Unspecified
(0.0000°N, 0.0000°E)
Time: 13:46:43
(UTC+02:00)
Language:

Cosmos 1980 Rocket - Orbit

View from above orbital plane
View from above orbital plane
View from above satellite
View from above satellite

Ground track
Ground track

The orbit data is extracted from the following two-line orbital elements,

1 19650U 88102B   16144.41695225 -.00000277  00000-0 -11693-3 0  9991
2 19650  70.9985 114.6615 0012421  49.9324 310.2886 14.15741155420824
Epoch (UTC): 23 May 2016 10:00:24
Eccentricity: 0.0012421
inclination: 70.9985°
perigee height: 831 km
apogee height: 849 km
right ascension of ascending node: 114.6615°
argument of perigee: 49.9324°
revolutions per day: 14.15741155
mean anomaly at epoch: 310.2886°
orbit number at epoch: 42082

The dashed part of the orbit path shows where the satellite is in the earth's shadow,  

DLR